Zurück zum Katalog

STARLINK-31762

AktivKommunikationVLEO
NORAD 59614·PAYLOAD·🇺🇸 United States

Gestartet Apr 28, 2024 von Cape Canaveral Space Force Station

Loading…

Nächste Überflüge (nächste 24 Stunden)

TLE

AktuellSource: CelesTrak SupGP

Epoche: Sep 14, 2026, 22:31 UTC

1 59614C 24080P   26257.93868056  .00049659  00000+0  17988-2 0  2570
2 59614  43.0037  49.2639 0001483 273.2812 109.7679 15.27551953    11

Verfolge STARLINK-31762 in Echtzeit mit AllMySat

Download on the App Store